FW4559 Weather Reports


time (UTC)temp
F
wind
direction
speed
knots
gust
knots
rain 1hr
in
rain 24hr
in
rain mn
in
humidity
%
barometer
mb
20260906072057 62 138 0.0 0.0 0.00 0.01 0.00 96 1011.0
20260906071555 63 139 0.0 0.0 0.00 0.01 0.00 96 1011.0
20260906071054 63 138 0.0 0.0 0.00 0.01 0.00 96 1010.9
20260906070556 62 138 0.0 0.0 0.00 0.01 0.00 96 1010.8
20260906070054 62 138 0.0 0.0 0.00 0.01 0.00 95 1010.8
20260906065554 62 138 0.0 0.0 0.00 0.01 0.00 96 1010.9
20260906065053 62 138 0.0 0.0 0.00 0.01 0.00 95 1011.1
20260906064551 62 138 0.0 0.0 0.00 0.01 0.00 95 1011.3
20260906064051 62 138 0.0 0.0 0.00 0.01 0.00 95 1011.4
20260906063550 62 138 0.0 0.0 0.00 0.01 0.00 95 1011.6
20260906063049 63 138 0.0 0.0 0.00 0.01 0.00 95 1011.6
20260906062549 63 138 0.0 0.0 0.00 0.01 0.00 95 1011.6
20260906062047 63 139 0.0 0.0 0.00 0.01 0.00 95 1011.9
20260906061552 63 138 0.0 0.0 0.00 0.01 0.00 95 1011.9
20260906061047 63 138 0.0 0.0 0.00 0.01 0.00 95 1011.8
20260906060547 63 138 0.0 0.0 0.00 0.01 0.00 95 1011.9
20260906060047 63 138 0.0 0.0 0.00 0.01 0.00 95 1012.0
20260906055546 63 138 0.0 0.0 0.00 0.01 0.00 95 1012.0
20260906055047 63 138 0.0 0.0 0.00 0.01 0.00 95 1012.2
20260906054601 63 138 0.0 0.0 0.00 0.01 0.00 95 1012.1
20260906054045 63 139 0.0 0.0 0.00 0.01 0.00 94 1012.1
20260906053544 63 138 0.0 0.0 0.00 0.01 0.00 94 1012.1
20260906053044 63 139 0.0 0.0 0.00 0.01 0.00 93 1011.9
20260906052544 63 138 0.0 0.0 0.00 0.01 0.00 93 1012.0
20260906052042 64 138 0.0 0.0 0.00 0.01 0.00 94 1012.1
20260906051542 64 138 0.0 0.0 0.00 0.01 0.00 94 1011.9
20260906051043 64 138 0.0 0.9 0.00 0.01 0.00 94 1012.0
20260906050543 64 138 0.0 0.9 0.00 0.01 0.00 94 1012.1
20260906050040 64 138 0.0 0.9 0.00 0.01 0.00 94 1012.1
20260906045539 64 139 0.0 0.9 0.00 0.01 0.00 94 1012.1
20260906045038 64 153 0.0 0.0 0.00 0.01 0.00 94 1012.3
20260906044538 64 153 0.0 0.0 0.00 0.01 0.00 94 1012.3
20260906044039 64 153 0.0 0.0 0.00 0.01 0.00 94 1012.3
20260906043538 63 153 0.0 0.0 0.00 0.01 0.00 94 1012.2
20260906043037 63 153 0.0 0.0 0.00 0.01 0.00 93 1012.2
20260906042537 63 153 0.0 0.0 0.00 0.01 0.00 93 1012.3
20260906042035 63 153 0.0 0.0 0.00 0.01 0.00 93 1012.4
20260906041535 63 153 0.0 0.0 0.00 0.01 0.00 93 1012.4
20260906041035 64 153 0.0 0.0 0.00 0.01 0.00 92 1012.4
20260906040533 64 153 0.0 0.0 0.00 0.01 0.00 92 1012.4
20260906040044 64 153 0.0 0.0 0.00 0.01 0.00 92 1012.4
20260906035532 64 153 0.0 0.0 0.00 0.01 0.01 92 1012.4
20260906035032 64 153 0.0 0.0 0.00 0.01 0.01 91 1012.5
20260906034546 64 153 0.0 0.0 0.00 0.01 0.01 91 1012.4
20260906034031 65 153 0.0 0.0 0.00 0.01 0.01 91 1012.5
20260906033532 65 153 0.0 0.9 0.00 0.01 0.01 90 1012.5
20260906033031 65 153 0.0 0.9 0.00 0.01 0.01 90 1012.4
20260906032530 65 153 0.0 0.0 0.00 0.01 0.01 90 1012.6
20260906032034 66 153 0.0 0.9 0.00 0.01 0.01 89 1012.6
20260906031558 66 140 0.0 0.9 0.00 0.01 0.01 89 1012.4
20260906031032 66 157 0.0 0.0 0.00 0.01 0.01 88 1012.3
20260906030530 66 157 0.0 0.9 0.00 0.01 0.01 87 1012.4
20260906030032 67 139 0.0 0.9 0.00 0.01 0.01 87 1012.5
20260906025531 67 139 0.0 0.0 0.00 0.01 0.01 86 1012.4
20260906025032 67 139 0.0 1.7 0.00 0.01 0.01 86 1012.5
20260906024550 67 139 0.0 1.7 0.00 0.01 0.01 87 1012.4
20260906024031 67 156 0.0 0.9 0.00 0.01 0.01 87 1012.4
20260906023530 67 171 0.0 0.9 0.00 0.01 0.01 87 1012.5
20260906023027 66 166 0.0 0.9 0.00 0.01 0.01 87 1012.4
20260906022526 66 166 0.0 0.9 0.00 0.01 0.01 86 1012.3
20260906022025 67 162 0.0 0.9 0.00 0.01 0.01 86 1012.2
20260906021524 67 207 0.0 0.0 0.00 0.01 0.01 84 1012.2
20260906021024 68 207 0.0 0.0 0.00 0.01 0.01 83 1012.1
20260906020527 68 207 0.0 0.0 0.00 0.01 0.01 83 1012.2
20260906020024 68 207 0.0 0.0 0.00 0.01 0.01 82 1012.1
20260906015525 69 207 0.0 0.0 0.00 0.01 0.01 81 1012.2
20260906015023 69 207 0.0 0.0 0.00 0.01 0.01 80 1012.2
20260906014524 69 207 0.0 0.0 0.00 0.01 0.01 80 1012.1
20260906014023 69 207 0.0 0.9 0.00 0.01 0.01 79 1012.0
20260906013523 70 207 0.0 0.9 0.00 0.01 0.01 79 1012.0
20260906013023 70 207 0.0 0.9 0.00 0.01 0.01 77 1012.1
20260906012523 71 349 0.0 0.9 0.00 0.01 0.01 76 1011.9
20260906012022 71 349 0.0 0.9 0.00 0.01 0.01 75 1011.8
20260906011522 72 349 0.0 2.6 0.00 0.01 0.01 74 1011.9
20260906011021 72 349 0.0 2.6 0.00 0.01 0.01 74 1011.8
20260906010522 72 343 0.0 1.7 0.00 0.01 0.01 73 1011.8
20260906010040 72 326 0.0 4.3 0.00 0.01 0.01 73 1011.5
20260906005521 72 11 0.9 4.3 0.00 0.01 0.01 73 1011.4
20260906005022 73 336 0.9 8.7 0.00 0.01 0.01 72 1011.4
20260906004522 73 11 0.9 8.7 0.00 0.01 0.01 72 1011.5
20260906004022 73 326 0.9 4.3 0.00 0.01 0.01 71 1011.3
20260906003521 73 320 0.9 6.1 0.00 0.01 0.01 71 1011.3
20260906003021 73 311 0.9 3.5 0.00 0.01 0.01 71 1011.4
20260906002520 73 18 0.0 2.6 0.00 0.01 0.01 70 1011.4
20260906002024 73 341 0.0 3.5 0.00 0.01 0.01 70 1011.3
20260906001524 73 354 0.9 3.5 0.00 0.01 0.01 70 1011.2
20260906001019 73 343 0.9 3.5 0.00 0.01 0.01 70 1011.2
20260906000519 73 345 1.7 2.6 0.00 0.01 0.01 70 1011.1
20260906000021 73 351 0.0 1.7 0.00 0.01 0.01 70 1011.0
20260905235519 73 355 0.0 0.0 0.00 0.01 0.01 70 1010.9
20260905235021 74 355 0.0 0.0 0.00 0.01 0.01 69 1010.9
20260905234518 74 355 0.0 0.0 0.00 0.01 0.01 68 1011.0
20260905234019 75 355 0.0 0.0 0.00 0.01 0.01 67 1010.9
20260905233519 75 355 0.0 0.9 0.00 0.01 0.01 67 1010.9
20260905233020 76 355 0.0 0.9 0.00 0.01 0.01 67 1010.8
20260905232518 76 355 0.0 2.6 0.00 0.01 0.01 67 1010.9
20260905232018 76 354 0.0 1.7 0.00 0.01 0.01 66 1010.9
20260905231517 76 353 0.0 2.6 0.00 0.01 0.01 65 1010.8
20260905231019 77 360 0.0 2.6 0.00 0.01 0.01 64 1010.8
20260905230517 77 360 0.0 3.5 0.00 0.01 0.01 63 1010.8
20260905230030 77 340 0.9 3.5 0.00 0.01 0.01 63 1010.9
20260905225521 77 8 0.0 4.3 0.00 0.01 0.01 62 1010.9
20260905225017 77 346 0.9 5.2 0.00 0.01 0.01 62 1010.9
20260905224520 78 7 2.6 5.2 0.00 0.01 0.01 60 1011.0
20260905224017 78 340 0.9 9.6 0.00 0.01 0.01 60 1011.0
20260905223516 78 347 1.7 9.6 0.00 0.01 0.01 60 1010.9
20260905223018 78 349 1.7 7.0 0.00 0.01 0.01 59 1011.0
20260905222517 78 40 1.7 7.8 0.00 0.01 0.01 59 1011.1
20260905222015 78 20 1.7 7.8 0.00 0.01 0.01 58 1010.9
20260905221615 79 352 0.9 7.0 0.00 0.01 0.01 58 1011.0
20260905221016 79 344 0.9 7.8 0.00 0.01 0.01 58 1010.9
20260905220516 79 323 3.5 7.8 0.00 0.01 0.01 57 1010.9
20260905220016 79 311 1.7 7.0 0.00 0.01 0.01 57 1010.9
20260905215516 79 20 2.6 7.0 0.00 0.01 0.01 56 1011.0
20260905215014 80 316 2.6 7.0 0.00 0.01 0.01 55 1010.8
20260905214515 80 335 0.9 7.0 0.00 0.01 0.01 56 1010.8
20260905214014 80 10 1.7 7.8 0.00 0.01 0.01 54 1010.7
20260905213517 80 17 1.7 7.0 0.00 0.01 0.01 54 1010.6
20260905213014 80 6 2.6 10.4 0.00 0.01 0.01 53 1010.7
20260905212513 80 4 1.7 10.4 0.00 0.01 0.01 53 1010.7
20260905212012 80 358 3.5 10.4 0.00 0.01 0.01 52 1010.7
20260905211529 80 325 2.6 10.4 0.00 0.01 0.01 51 1010.8
20260905211013 80 307 0.0 8.7 0.00 0.01 0.01 52 1010.6
20260905210512 81 349 2.6 7.0 0.00 0.01 0.01 51 1010.7
20260905210012 81 335 0.0 10.4 0.00 0.01 0.01 52 1010.8
20260905205511 80 336 2.6 10.4 0.00 0.01 0.01 52 1010.7
20260905205011 80 329 1.7 11.3 0.00 0.01 0.01 52 1010.7
20260905204510 80 345 2.6 11.3 0.00 0.01 0.01 54 1010.7
20260905204015 81 309 3.5 7.8 0.00 0.01 0.01 53 1010.7
20260905203510 81 329 1.7 7.8 0.00 0.01 0.01 55 1010.7
20260905203009 81 24 1.7 4.3 0.00 0.01 0.01 58 1010.6
20260905202508 80 347 0.0 1.7 0.00 0.01 0.01 61 1010.7
20260905202007 79 271 0.0 3.5 0.00 0.01 0.01 62 1010.7
20260905201505 79 347 1.7 3.5 0.00 0.01 0.01 61 1010.8
20260905201005 80 345 0.9 3.5 0.00 0.01 0.01 62 1010.7
20260905200508 79 2 0.0 5.2 0.00 0.01 0.01 63 1010.7
20260905200008 79 345 0.9 5.2 0.00 0.01 0.01 61 1010.7
20260905195505 79 359 0.9 2.6 0.00 0.01 0.01 61 1010.6
20260905195004 78 182 0.0 2.6 0.00 0.01 0.01 63 1010.6
20260905194504 78 76 0.0 1.7 0.00 0.01 0.01 63 1010.7
20260905194003 77 210 0.0 1.7 0.00 0.01 0.01 64 1010.5
20260905193502 76 207 0.0 1.7 0.00 0.01 0.01 66 1010.4
20260905193002 75 340 0.0 1.7 0.00 0.01 0.01 66 1010.5
20260905192503 75 86 0.0 1.7 0.00 0.01 0.01 67 1010.4
20260905192100 74 18 0.0 3.5 0.00 0.01 0.01 69 1010.4
20260905192000 74 319 0.0 3.5 0.00 0.01 0.01 70 1010.4
20260905191501 74 346 0.9 5.2 0.00 0.01 0.01 71 1010.4
20260905191003 73 84 0.9 5.2 0.00 0.01 0.01 72 1010.3
20260905190501 73 152 0.0 1.7 0.00 0.01 0.01 76 1010.3
20260905190100 73 25 0.0 2.6 0.00 0.01 0.01 77 1010.2
20260905185601 72 12 0.0 2.6 0.00 0.01 0.01 79 1010.3
20260905185059 72 347 1.7 2.6 0.00 0.01 0.01 77 1010.3
20260905184559 72 351 0.0 1.7 0.01 0.01 0.01 78 1010.4
20260905184058 72 358 0.0 1.7 0.01 0.01 0.01 77 1010.4
20260905183558 72 358 0.0 1.7 0.01 0.01 0.01 78 1010.5
20260905183058 71 3 0.0 1.7 0.01 0.01 0.01 79 1010.6
20260905182556 71 134 0.0 0.9 0.01 0.01 0.01 82 1010.9
20260905182055 70 212 0.0 0.9 0.01 0.01 0.01 83 1011.1
20260905181555 69 195 0.0 4.3 0.01 0.01 0.01 84 1011.2
20260905181052 68 179 0.9 4.3 0.01 0.01 0.01 84 1011.5
20260905180553 69 212 0.9 3.5 0.01 0.01 0.01 84 1011.9
20260905180101 69 357 0.0 2.6 0.01 0.01 0.01 82 1011.7
20260905175553 69 357 0.0 2.6 0.01 0.01 0.01 79 1011.7
20260905175052 69 355 0.0 1.7 0.01 0.01 0.01 79 1011.5
20260905174555 70 7 0.0 4.3 0.00 0.00 0.00 77 1011.6
20260905174054 71 333 0.0 5.2 0.00 0.00 0.00 75 1012.3
20260905173551 71 356 0.9 6.1 0.00 0.00 0.00 72 1012.7
20260905173100 72 360 1.7 6.1 0.00 0.00 0.00 70 1013.0
20260905172550 73 350 0.9 8.7 0.00 0.00 0.00 69 1012.9
20260905172050 73 345 2.6 8.7 0.00 0.00 0.00 68 1013.2
20260905171549 74 349 0.9 5.2 0.00 0.00 0.00 67 1013.3
20260905171048 74 7 0.0 6.1 0.00 0.00 0.00 66 1013.4
20260905170549 74 357 0.0 13.9 0.00 0.00 0.00 67 1013.6
20260905170049 75 327 5.2 13.9 0.00 0.00 0.00 65 1013.6
20260905165548 76 337 4.3 14.8 0.00 0.00 0.00 65 1013.6
20260905165052 77 339 7.0 21.7 0.00 0.00 0.00 66 1013.4
20260905164548 78 26 6.1 21.7 0.00 0.00 0.00 68 1013.3
20260905164047 79 315 2.6 11.3 0.00 0.00 0.00 71 1013.2
20260905163550 79 30 5.2 11.3 0.00 0.00 0.00 69 1013.2
20260905163049 79 328 1.7 14.8 0.00 0.00 0.00 69 1013.3
20260905162548 80 317 4.3 14.8 0.00 0.00 0.00 67 1013.2
20260905162046 80 353 4.3 13.0 0.00 0.00 0.00 66 1013.1
20260905161546 81 142 2.6 13.9 0.00 0.00 0.00 65 1012.9
20260905161047 81 356 2.6 12.2 0.00 0.00 0.00 65 1012.8
20260905160546 81 306 2.6 12.2 0.00 0.00 0.00 64 1012.8
20260905160046 81 291 2.6 11.3 0.00 0.00 0.00 64 1012.7
20260905155549 81 338 1.7 7.8 0.00 0.00 0.00 68 1012.9
20260905155046 81 324 2.6 7.8 0.00 0.00 0.00 68 1013.0
20260905154546 80 245 1.7 12.2 0.00 0.00 0.00 70 1013.1
20260905154048 80 339 2.6 12.2 0.00 0.00 0.00 70 1013.0
20260905153545 80 330 4.3 11.3 0.00 0.00 0.00 68 1013.1
20260905153045 80 257 5.2 11.3 0.00 0.00 0.00 67 1012.9
20260905152545 80 331 2.6 10.4 0.00 0.00 0.00 67 1013.0
20260905152044 81 360 2.6 12.2 0.00 0.00 0.00 67 1012.9
20260905151548 80 51 4.3 12.2 0.00 0.00 0.00 68 1012.9
20260905151044 81 336 3.5 9.6 0.00 0.00 0.00 68 1012.7
20260905150544 81 314 2.6 9.6 0.00 0.00 0.00 69 1012.6
20260905150044 80 349 4.3 9.6 0.00 0.00 0.00 69 1012.6
20260905145543 81 12 5.2 9.6 0.00 0.00 0.00 68 1012.6
20260905145042 81 327 3.5 7.0 0.00 0.00 0.00 68 1012.6
20260905144541 81 4 2.6 10.4 0.00 0.00 0.00 68 1012.6
20260905144044 82 333 3.5 10.4 0.00 0.00 0.00 66 1012.7
20260905143544 82 340 0.0 4.3 0.00 0.00 0.00 69 1012.8
20260905143047 82 37 0.9 4.3 0.00 0.00 0.00 69 1012.7
20260905142541 82 300 0.0 1.7 0.00 0.00 0.00 70 1012.8
20260905142038 81 15 0.0 2.6 0.00 0.00 0.00 72 1012.8
20260905141535 81 20 0.0 2.6 0.00 0.00 0.00 72 1012.9
20260905141034 81 350 0.9 2.6 0.00 0.00 0.00 71 1012.9
20260905140534 81 255 0.0 0.9 0.00 0.00 0.00 74 1012.9
20260905140032 79 251 0.0 1.7 0.00 0.00 0.00 78 1012.8
20260905135529 78 335 0.0 2.6 0.00 0.00 0.00 79 1012.8
20260905135033 78 330 0.9 2.6 0.00 0.00 0.00 80 1012.8
20260905134533 77 331 0.9 1.7 0.00 0.00 0.00 80 1012.8
20260905134028 77 341 0.0 2.6 0.00 0.00 0.00 82 1012.7
20260905133523 76 341 0.9 2.6 0.00 0.00 0.00 83 1012.8
20260905133023 75 354 0.9 2.6 0.00 0.00 0.00 83 1013.0
20260905132521 75 354 0.0 1.7 0.00 0.00 0.00 85 1013.0
20260905132022 74 354 0.9 1.7 0.00 0.00 0.00 87 1013.2
20260905131521 73 350 0.0 1.7 0.00 0.00 0.00 89 1013.3
20260905131016 72 349 0.0 0.9 0.00 0.00 0.00 91 1013.3
20260905130515 72 37 0.0 0.0 0.00 0.00 0.00 94 1013.4
20260905130013 71 42 0.0 0.0 0.00 0.00 0.00 96 1013.6
20260905125511 70 42 0.0 0.0 0.00 0.00 0.00 96 1013.6
20260905125011 69 113 0.0 0.0 0.00 0.00 0.00 96 1013.7
20260905124511 69 113 0.0 0.9 0.00 0.00 0.00 95 1013.6
20260905124011 68 113 0.0 0.9 0.00 0.00 0.00 96 1013.6
20260905123507 67 113 0.0 0.0 0.00 0.00 0.00 95 1013.5
20260905123007 67 113 0.0 0.0 0.00 0.00 0.00 96 1013.6
20260905122505 66 113 0.0 0.0 0.00 0.00 0.00 96 1013.5
20260905122003 66 113 0.0 0.0 0.00 0.00 0.00 96 1013.4
20260905121505 65 113 0.0 0.0 0.00 0.00 0.00 96 1013.5
20260905121003 65 113 0.0 0.0 0.00 0.00 0.00 96 1013.5
20260905120502 65 113 0.0 0.0 0.00 0.00 0.00 96 1013.4
20260905120003 64 113 0.0 0.0 0.00 0.00 0.00 95 1013.5
20260905115502 64 113 0.0 0.0 0.00 0.00 0.00 96 1013.4
20260905115005 63 113 0.0 0.0 0.00 0.00 0.00 96 1013.4
20260905114502 63 113 0.0 0.0 0.00 0.00 0.00 96 1013.4
20260905114101 63 113 0.0 0.0 0.00 0.00 0.00 96 1013.2
20260905113600 63 113 0.0 0.0 0.00 0.00 0.00 96 1013.1
20260905113100 63 113 0.0 0.0 0.00 0.00 0.00 96 1013.1
20260905112600 62 113 0.0 0.0 0.00 0.00 0.00 96 1013.0
20260905112100 62 113 0.0 0.0 0.00 0.00 0.00 96 1012.9
20260905111559 62 113 0.0 0.0 0.00 0.00 0.00 96 1013.0
20260905111100 62 113 0.0 0.0 0.00 0.00 0.00 96 1013.0
20260905110558 62 113 0.0 0.0 0.00 0.00 0.00 96 1012.9
20260905110110 62 113 0.0 0.0 0.00 0.00 0.00 96 1012.9
20260905105558 62 113 0.0 0.0 0.00 0.00 0.00 96 1012.8
20260905105058 62 113 0.0 0.0 0.00 0.00 0.00 96 1012.7
20260905104558 62 113 0.0 0.0 0.00 0.00 0.00 96 1012.7
20260905104056 62 113 0.0 0.0 0.00 0.00 0.00 96 1012.7
20260905103559 63 113 0.0 0.0 0.00 0.00 0.00 96 1012.7
20260905103056 63 113 0.0 0.0 0.00 0.00 0.00 96 1012.8
20260905102655 63 113 0.0 0.0 0.00 0.00 0.00 96 1012.8
20260905102056 63 113 0.0 0.0 0.00 0.00 0.00 96 1012.7
20260905101605 63 113 0.0 0.0 0.00 0.00 0.00 96 1012.6
20260905101054 63 113 0.0 0.0 0.00 0.00 0.00 96 1012.7
20260905100554 63 113 0.0 0.0 0.00 0.00 0.00 96 1012.7
20260905100054 63 113 0.0 0.0 0.00 0.00 0.00 96 1012.6
20260905095555 63 113 0.0 0.0 0.00 0.00 0.00 96 1012.6
20260905095054 63 113 0.0 0.0 0.00 0.00 0.00 96 1012.6
20260905094554 63 113 0.0 0.0 0.00 0.00 0.00 96 1012.5
20260905094054 62 113 0.0 0.0 0.00 0.00 0.00 96 1012.5
20260905093553 63 113 0.0 0.0 0.00 0.00 0.00 96 1012.3
20260905093053 63 113 0.0 0.0 0.00 0.00 0.00 96 1012.3
20260905092552 63 113 0.0 0.0 0.00 0.00 0.00 96 1012.3
20260905092052 63 113 0.0 0.0 0.00 0.00 0.00 96 1012.4
20260905091602 63 113 0.0 0.0 0.00 0.00 0.00 96 1012.4
20260905091050 63 113 0.0 0.0 0.00 0.00 0.00 96 1012.3
20260905090550 63 113 0.0 0.0 0.00 0.00 0.00 96 1012.4
20260905090049 63 113 0.0 0.0 0.00 0.00 0.00 96 1012.5
20260905085553 64 113 0.0 0.0 0.00 0.00 0.00 96 1012.6
20260905085050 64 113 0.0 0.0 0.00 0.00 0.00 96 1012.6
20260905084548 64 113 0.0 0.0 0.00 0.00 0.00 96 1012.6
20260905084047 64 113 0.0 0.0 0.00 0.00 0.00 96 1012.7
20260905083547 63 113 0.0 0.0 0.00 0.00 0.00 96 1012.8
20260905083046 63 113 0.0 0.0 0.00 0.00 0.00 96 1012.7
20260905082546 63 113 0.0 0.0 0.00 0.00 0.00 96 1012.8
20260905082045 63 113 0.0 0.0 0.00 0.00 0.00 96 1012.8
20260905081544 64 113 0.0 0.0 0.00 0.00 0.00 96 1012.8
20260905081047 64 113 0.0 0.0 0.00 0.00 0.00 96 1013.0
20260905080542 64 113 0.0 0.0 0.00 0.00 0.00 96 1013.0
20260905080042 64 113 0.0 0.0 0.00 0.00 0.00 96 1013.0
20260905075542 64 113 0.0 0.0 0.00 0.00 0.00 96 1013.1
20260905075042 64 113 0.0 0.0 0.00 0.00 0.00 96 1013.1
20260905074541 64 113 0.0 0.0 0.00 0.00 0.00 96 1013.2
20260905074041 64 113 0.0 0.0 0.00 0.00 0.00 96 1013.3
20260905073543 64 113 0.0 0.0 0.00 0.00 0.00 96 1013.3
20260905073040 64 113 0.0 0.0 0.00 0.00 0.00 96 1013.4
20260905072540 64 113 0.0 0.0 0.00 0.00 0.00 96 1013.3